This is the latest recevied weather packets stored in our database for station/object N1YZ. If no packets are shown the sender has not sent any weather packets the latest 10 day(s).
| Time | Temp. | Humidity | Pressure | Rain* | Wind** | Luminosity | Snow |
|---|---|---|---|---|---|---|---|
| 1788358337 | 29.44° C | 79% | 1039.1 hPa | 0 mm | - | 278 W/m² | - |
| 1788358026 | 28.89° C | 81% | 1038.9 hPa | 0 mm | - | 52 W/m² | - |
| 1788357727 | 28.33° C | 83% | 1039 hPa | 0 mm | - | 132 W/m² | - |
| 1788357426 | 28.33° C | 83% | 1039 hPa | 0 mm | - | 32 W/m² | - |
| 1788357122 | 28.33° C | 84% | 1038.9 hPa | 0 mm | - | 33 W/m² | - |
| 1788356816 | 27.78° C | 83% | 1039 hPa | 0 mm | - | 30 W/m² | - |
| 1788356516 | 27.22° C | 87% | 1039.2 hPa | 0 mm | - | 77 W/m² | - |
| 1788356212 | 26.67° C | 88% | 1039.3 hPa | 0 mm | - | 136 W/m² | - |
| 1788355911 | 26.11° C | 90% | 1039.3 hPa | 0 mm | - | 35 W/m² | - |
| 1788355607 | 26.11° C | 91% | 1039.2 hPa | 0 mm | - | 26 W/m² | - |
| 1788355302 | 25.56° C | 92% | 1039.1 hPa | 0 mm | - | 26 W/m² | - |
| 1788354998 | 25.56° C | 92% | 1039.1 hPa | 0 mm | - | 28 W/m² | - |
| 1788354693 | 25.56° C | 92% | 1039.2 hPa | 0 mm | - | 24 W/m² | - |
| 1788354389 | 25.56° C | 93% | 1039.1 hPa | 0 mm | - | 35 W/m² | - |
| 1788354084 | 25° C | 94% | 1039 hPa | 0 mm | - | 22 W/m² | - |
| 1788353780 | 25° C | 94% | 1038.9 hPa | 0 mm | - | 21 W/m² | - |
| 1788353475 | 25° C | 94% | 1039 hPa | 0 mm | - | 20 W/m² | - |
| 1788353172 | 24.44° C | 95% | 1039.2 hPa | 0 mm | - | 19 W/m² | - |
| 1788352871 | 24.44° C | 96% | 1038.9 hPa | 0 mm | - | 19 W/m² | - |
| 1788352567 | 24.44° C | 96% | 1039.1 hPa | 0 mm | - | 18 W/m² | - |
| 1788352261 | 24.44° C | 96% | 1039 hPa | 0 mm | - | 17 W/m² | - |
| 1788351956 | 23.89° C | 96% | 1038.8 hPa | 0 mm | - | 16 W/m² | - |
| 1788351651 | 23.89° C | 97% | 1038.8 hPa | 0 mm | - | 15 W/m² | - |
| 1788351346 | 23.89° C | 97% | 1038.9 hPa | 0 mm | - | 14 W/m² | - |
| 1788351041 | 23.89° C | 97% | 1038.7 hPa | 0 mm | - | 13 W/m² | - |
* Rain latest hour (hover to see other rain measurements)
** Current wind speed in m/s (hover to see current wind gust speed)